Location: Caltech
(34.1382°N, 118.1253°W)
Time: 19:05:58
(UTC-07:00)

Iridium 14 - Visible Passes

Search period start: 28 May 2015 00:00
Search period end: 07 June 2015 00:00
Orbit: 776 x 779 km, 86.4° (Epoch: 28 May)

Date Brightness Start Highest point End Pass type
(mag) Time Alt. Az. Time Alt. Az. Time Alt. Az.
28 May 6.1 20:24:02 10° S 20:29:14 85° W 20:34:29 10° N visible
29 May 8.8 21:33:47 10° WSW 21:36:53 15° WNW 21:39:45 10° NW visible
30 May 8.1 20:58:31 10° SW 21:03:03 29° W 21:07:31 10° NNW visible
31 May 6.8 20:24:15 10° SSW 20:29:23 57° W 20:34:30 10° N visible
02 Jun 8.7 20:59:30 10° SW 21:03:20 20° WNW 21:07:00 10° NNW visible
03 Jun 7.7 20:24:43 10° SSW 20:29:33 38° W 20:34:22 10° NNW visible
05 Jun 9.0 21:01:07 10° WSW 21:03:41 13° WNW 21:05:56 10° NW visible
06 Jun 8.5 20:25:28 10° SW 20:29:48 25° W 20:34:02 10° NNW visible
